KJ4KNU Weather Reports


Display with metric or nautical units.
time (UTC)temp
F
wind
direction
speed
MPH
gust
MPH
rain 1hr
in
rain 24hr
in
rain mn
in
humidity
%
barometer
mb
20260906104003 62 0 0.0 0.0 0.00 0.00 0.00 100 1017.2
20260906103503 62 0 0.0 0.0 0.00 0.00 0.00 99 1017.2
20260906103003 62 0 0.0 0.0 0.00 0.00 0.00 99 1017.3
20260906102503 62 0 0.0 0.0 0.00 0.00 0.00 99 1017.4
20260906102003 62 0 0.0 0.0 0.00 0.00 0.00 100 1017.4
20260906101503 62 0 0.0 0.0 0.00 0.00 0.00 100 1017.3
20260906101002 62 0 0.0 0.0 0.00 0.00 0.00 100 1017.3
20260906100503 61 0 0.0 0.0 0.00 0.00 0.00 100 1017.2
20260906100003 61 0 0.0 0.0 0.00 0.00 0.00 100 1017.2
20260906095503 61 0 0.0 0.0 0.00 0.00 0.00 99 1017.3
20260906095003 60 0 0.0 0.0 0.00 0.00 0.00 99 1017.2
20260906094003 60 0 0.0 0.0 0.00 0.00 0.00 99 1017.1
20260906093003 60 0 0.0 0.0 0.00 0.00 0.00 99 1017.0
20260906092503 60 0 0.0 0.0 0.00 0.00 0.00 100 1017.0
20260906092003 60 0 0.0 0.0 0.00 0.00 0.00 100 1017.0
20260906091503 59 0 0.0 0.0 0.00 0.00 0.00 99 1017.0
20260906091003 59 0 0.0 0.0 0.00 0.00 0.00 99 1016.9
20260906090502 59 0 0.0 0.0 0.00 0.00 0.00 99 1016.9
20260906090003 59 0 0.0 0.0 0.00 0.00 0.00 99 1016.8
20260906085503 58 0 0.0 0.0 0.00 0.00 0.00 99 1016.8
20260906085003 58 0 0.0 0.0 0.00 0.00 0.00 99 1016.7
20260906084503 58 0 0.0 0.0 0.00 0.00 0.00 100 1016.7
20260906084003 58 0 0.0 0.0 0.00 0.00 0.00 99 1016.6
20260906083503 58 0 0.0 0.0 0.00 0.00 0.00 99 1016.6
20260906083003 57 0 0.0 0.0 0.00 0.00 0.00 100 1016.7
20260906082502 57 0 0.0 0.0 0.00 0.00 0.00 97 1016.6
20260906081503 57 0 0.0 0.0 0.00 0.00 0.00 100 1016.5
20260906081003 58 0 0.0 0.0 0.00 0.00 0.00 97 1016.5
20260906080503 58 0 0.0 0.0 0.00 0.00 0.00 100 1016.4
20260906080003 59 0 0.0 0.0 0.00 0.00 0.00 100 1016.5
20260906075503 59 0 0.0 0.0 0.00 0.00 0.00 100 1016.4
20260906075003 59 0 0.0 0.0 0.00 0.00 0.00 99 1016.4
20260906073003 59 0 0.0 0.0 0.00 0.00 0.00 97 1016.4
20260906072503 59 0 0.0 0.0 0.00 0.00 0.00 100 1016.5
20260906065502 60 0 0.0 0.0 0.00 0.00 0.00 100 1016.8
20260906065003 60 0 0.0 0.0 0.00 0.00 0.00 100 1016.8
20260906064003 59 0 0.0 0.0 0.00 0.00 0.00 97 1016.9
20260906063503 59 0 0.0 0.0 0.00 0.00 0.00 96 1017.0
20260906063003 60 0 0.0 0.0 0.00 0.00 0.00 97 1017.0
20260906062503 60 0 0.0 0.0 0.00 0.00 0.00 97 1016.9
20260906062002 60 0 0.0 0.0 0.00 0.00 0.00 97 1017.1
20260906061503 60 0 0.0 0.0 0.00 0.00 0.00 97 1017.1
20260906061003 60 0 0.0 0.0 0.00 0.00 0.00 96 1017.1
20260906060003 61 0 0.0 0.0 0.00 0.00 0.00 97 1017.1
20260906055503 60 0 0.0 0.0 0.00 0.00 0.00 97 1017.1
20260906055003 60 0 0.0 0.0 0.00 0.00 0.00 97 1017.1
20260906054503 60 0 0.0 0.0 0.00 0.00 0.00 97 1017.1
20260906054003 60 0 0.0 0.0 0.00 0.00 0.00 95 1017.1
20260906053503 61 0 0.0 0.0 0.00 0.00 0.00 95 1017.1
20260906053003 61 0 0.0 0.0 0.00 0.00 0.00 97 1017.2
20260906052503 61 0 0.0 0.0 0.00 0.00 0.00 96 1017.2
20260906052003 61 0 0.0 0.0 0.00 0.00 0.00 96 1017.2
20260906051003 62 0 0.0 0.0 0.00 0.00 0.00 95 1017.2
20260906050503 62 0 0.0 0.0 0.00 0.00 0.00 96 1017.2
20260906050003 62 0 0.0 0.0 0.00 0.00 0.00 97 1017.1
20260906045503 62 0 0.0 0.0 0.00 0.00 0.00 97 1017.1
20260906045003 62 0 0.0 0.0 0.00 0.00 0.00 96 1017.2
20260906044504 62 0 0.0 0.0 0.00 0.00 0.00 96 1017.2
20260906044003 63 0 0.0 0.0 0.00 0.00 0.00 96 1017.2
20260906043503 63 0 0.0 0.0 0.00 0.00 0.00 97 1017.2
20260906043003 62 0 0.0 0.0 0.00 0.00 0.00 97 1017.2
20260906042503 62 0 0.0 0.0 0.00 0.00 0.00 96 1017.3
20260906041503 62 0 0.0 0.0 0.00 0.00 0.00 95 1017.3
20260906041003 62 0 0.0 0.0 0.00 0.00 0.00 95 1017.4
20260906040008 62 0 0.0 0.0 0.00 0.00 0.00 95 1017.2
20260906035503 62 0 0.0 0.0 0.00 0.00 0.00 95 1017.2
20260906035003 62 0 0.0 0.0 0.00 0.00 0.00 94 1017.2
20260906034503 63 0 0.0 0.0 0.00 0.00 0.00 95 1017.4
20260906034003 63 0 0.0 0.0 0.00 0.00 0.00 96 1017.6
20260906033503 63 0 0.0 0.0 0.00 0.00 0.00 96 1017.7
20260906033003 62 0 0.0 0.0 0.00 0.00 0.00 95 1017.5
20260906032003 63 0 0.0 0.0 0.00 0.00 0.00 94 1017.6
20260906031503 63 0 0.0 0.0 0.00 0.00 0.00 93 1017.6
20260906031003 63 0 0.0 0.0 0.00 0.00 0.00 92 1017.6
20260906030503 64 0 0.0 0.0 0.00 0.00 0.00 93 1017.7
20260906030004 64 0 0.0 0.0 0.00 0.00 0.00 93 1017.6
20260906025003 64 0 0.0 0.0 0.00 0.00 0.00 96 1017.5
20260906024503 64 0 0.0 0.0 0.00 0.00 0.00 95 1017.6
20260906024002 64 0 0.0 0.0 0.00 0.00 0.00 94 1017.6
20260906023503 64 0 0.0 0.0 0.00 0.00 0.00 93 1017.5
20260906023003 64 0 0.0 0.0 0.00 0.00 0.00 93 1017.4
20260906022503 64 0 0.0 0.0 0.00 0.00 0.00 94 1017.4
20260906022003 64 0 0.0 0.0 0.00 0.00 0.00 93 1017.3
20260906021003 64 0 0.0 0.0 0.00 0.00 0.00 93 1017.4
20260906020503 64 0 0.0 0.0 0.00 0.00 0.00 92 1017.3
20260906020003 65 0 0.0 0.0 0.00 0.00 0.00 91 1017.4
20260906015503 65 0 0.0 0.0 0.00 0.00 0.00 92 1017.2
20260906015003 65 0 0.0 2.0 0.00 0.00 0.00 91 1017.1
20260906014503 66 0 0.0 3.0 0.00 0.00 0.00 90 1017.1
20260906014003 66 137 1.0 3.0 0.00 0.00 0.00 90 1017.1
20260906013503 66 137 0.0 3.0 0.00 0.00 0.00 90 1017.1
20260906013004 66 138 3.0 3.0 0.00 0.00 0.00 91 1017.1
20260906012503 66 44 1.0 3.0 0.00 0.00 0.00 90 1017.1
20260906012003 66 35 2.0 3.0 0.00 0.00 0.00 90 1017.0
20260906011503 67 0 0.0 0.0 0.00 0.00 0.00 88 1017.0
20260906011003 67 0 0.0 2.0 0.00 0.00 0.00 88 1016.9
20260906010503 67 0 0.0 2.0 0.00 0.00 0.00 86 1016.9
20260906010004 68 35 1.0 2.0 0.00 0.00 0.00 87 1016.8
20260906005503 68 35 0.0 1.0 0.00 0.00 0.00 87 1016.8
20260906005003 68 0 0.0 0.0 0.00 0.00 0.00 87 1016.9
20260906004504 68 0 0.0 0.0 0.00 0.00 0.00 86 1016.9
20260906003503 69 0 0.0 2.0 0.00 0.00 0.00 84 1016.7
20260906003003 70 0 0.0 2.0 0.00 0.00 0.00 83 1016.7
20260906002503 70 34 0.0 1.0 0.00 0.00 0.00 83 1016.7
20260906002003 70 35 1.0 1.0 0.00 0.00 0.00 82 1016.8
20260906001503 71 0 0.0 1.0 0.00 0.00 0.00 81 1016.7
20260906001003 72 0 0.0 2.0 0.00 0.00 0.00 80 1016.5
20260906000503 72 34 1.0 2.0 0.00 0.00 0.00 79 1016.4
20260906000004 73 35 1.0 3.0 0.00 0.00 0.00 78 1016.4
20260905235504 73 34 1.0 6.0 0.00 0.00 0.00 76 1016.3
20260905235003 74 30 4.0 6.0 0.00 0.00 0.00 76 1016.3
20260905234503 74 6 3.0 7.0 0.00 0.00 0.00 74 1016.3
20260905233504 75 13 6.0 16.0 0.00 0.00 0.00 72 1016.2
20260905233004 75 11 5.0 16.0 0.00 0.00 0.00 72 1016.2
20260905232503 75 357 6.0 12.0 0.00 0.00 0.00 71 1016.3
20260905232003 76 347 3.0 5.0 0.00 0.00 0.00 71 1016.3
20260905231503 76 347 1.0 7.0 0.00 0.00 0.00 70 1016.3
20260905231003 76 1 3.0 10.0 0.00 0.00 0.00 69 1016.4
20260905230503 77 1 4.0 10.0 0.00 0.00 0.00 68 1016.3
20260905230004 77 1 4.0 15.0 0.00 0.00 0.00 68 1016.3
20260905225503 78 354 9.0 15.0 0.00 0.00 0.00 66 1016.3
20260905225004 78 339 3.0 9.0 0.00 0.00 0.00 67 1016.3
20260905224504 79 323 4.0 9.0 0.00 0.00 0.00 66 1016.4
20260905224004 80 309 5.0 9.0 0.00 0.00 0.00 66 1016.3
20260905223503 80 334 2.0 7.0 0.00 0.00 0.00 66 1016.3
20260905223003 80 334 1.0 8.0 0.00 0.00 0.00 68 1016.3
20260905222503 81 9 5.0 8.0 0.00 0.00 0.00 64 1016.3
20260905222003 82 350 2.0 10.0 0.00 0.00 0.00 64 1016.3
20260905221003 82 359 4.0 7.0 0.00 0.00 0.00 63 1016.2
20260905220503 82 349 4.0 9.0 0.00 0.00 0.00 64 1016.2
20260905220004 82 351 5.0 9.0 0.00 0.00 0.00 62 1016.2
20260905215003 82 19 4.0 9.0 0.00 0.00 0.00 61 1016.0
20260905214003 82 36 6.0 8.0 0.00 0.00 0.00 62 1016.0
20260905213503 82 12 4.0 10.0 0.00 0.00 0.00 64 1016.0
20260905213003 82 21 5.0 10.0 0.00 0.00 0.00 64 1016.0
20260905212503 82 331 6.0 10.0 0.00 0.00 0.00 62 1015.9
20260905212003 82 15 5.0 10.0 0.00 0.00 0.00 65 1015.8
20260905211503 81 14 3.0 6.0 0.00 0.00 0.00 66 1015.9
20260905211003 81 4 4.0 8.0 0.00 0.00 0.00 64 1015.9
20260905210503 81 23 4.0 9.0 0.00 0.00 0.00 64 1015.9
20260905210004 81 344 2.0 12.0 0.00 0.00 0.00 66 1015.8
20260905205503 81 8 5.0 12.0 0.00 0.00 0.00 64 1015.9
20260905205003 81 9 7.0 12.0 0.00 0.00 0.00 65 1015.8
20260905204504 81 44 4.0 9.0 0.00 0.00 0.00 63 1015.8
20260905204003 81 4 3.0 12.0 0.00 0.00 0.00 66 1015.9
20260905203503 81 351 5.0 12.0 0.00 0.00 0.00 64 1015.8
20260905203003 82 19 6.0 14.0 0.00 0.00 0.00 63 1015.8
20260905202504 82 9 6.0 14.0 0.00 0.00 0.00 66 1015.8
20260905202003 82 323 6.0 13.0 0.00 0.00 0.00 61 1015.9
20260905201504 82 297 8.0 15.0 0.00 0.00 0.00 62 1015.7
20260905201003 82 327 13.0 15.0 0.00 0.00 0.00 61 1015.7
20260905200503 82 357 6.0 12.0 0.00 0.00 0.00 65 1015.7
20260905200004 83 340 5.0 13.0 0.00 0.00 0.00 64 1015.5
20260905195502 83 19 6.0 13.0 0.00 0.00 0.00 65 1015.6
20260905195004 82 351 5.0 12.0 0.00 0.00 0.00 68 1015.6
20260905194503 82 338 6.0 12.0 0.00 0.00 0.00 65 1015.8
20260905193503 82 332 6.0 14.0 0.00 0.00 0.00 67 1015.6
20260905193004 81 312 10.0 15.0 0.00 0.00 0.00 65 1015.7
20260905192503 81 343 7.0 15.0 0.00 0.00 0.00 67 1015.6
20260905192003 81 357 8.0 18.0 0.00 0.00 0.00 69 1015.7
20260905191504 80 326 7.0 18.0 0.00 0.00 0.00 69 1015.8
20260905191003 80 331 11.0 17.0 0.00 0.00 0.00 70 1015.9
20260905190503 80 319 8.0 17.0 0.00 0.00 0.00 71 1016.0
20260905185003 78 335 4.0 14.0 0.00 0.00 0.00 78 1016.5
20260905184503 79 310 9.0 15.0 0.00 0.00 0.00 75 1016.7
20260905184003 79 328 10.0 16.0 0.00 0.00 0.00 74 1016.7
20260905183503 80 300 9.0 16.0 0.00 0.00 0.00 75 1016.8
20260905183004 79 2 9.0 17.0 0.00 0.00 0.00 77 1016.7
20260905182503 78 271 3.0 17.0 0.00 0.00 0.00 78 1016.7
20260905182003 77 321 7.0 17.0 0.00 0.00 0.00 79 1016.9
20260905181504 77 284 6.0 23.0 0.00 0.00 0.00 79 1016.8
20260905181003 76 268 8.0 23.0 0.00 0.00 0.00 78 1016.7
20260905180504 76 263 12.0 20.0 0.00 0.00 0.00 79 1016.7
20260905180004 76 265 9.0 16.0 0.00 0.00 0.00 78 1016.8
20260905175503 76 261 5.0 15.0 0.00 0.00 0.00 79 1017.0
20260905175003 77 262 8.0 15.0 0.00 0.00 0.00 79 1017.0
20260905174503 77 275 10.0 16.0 0.00 0.00 0.00 79 1017.1
20260905172503 77 225 9.0 14.0 0.00 0.00 0.00 77 1017.3
20260905172003 77 251 10.0 14.0 0.00 0.00 0.00 77 1017.4
20260905171503 77 266 10.0 14.0 0.00 0.00 0.00 75 1017.4
20260905171003 78 250 8.0 15.0 0.00 0.00 0.00 76 1017.5
20260905170004 78 245 4.0 17.0 0.00 0.00 0.00 74 1017.7
20260905165503 79 268 12.0 17.0 0.00 0.00 0.00 71 1017.9
20260905165003 79 268 11.0 16.0 0.00 0.00 0.00 72 1017.8
20260905164503 80 297 11.0 16.0 0.00 0.00 0.00 70 1017.9
20260905164003 80 324 6.0 15.0 0.00 0.00 0.00 69 1017.8
20260905163503 80 342 7.0 10.0 0.00 0.00 0.00 72 1017.9
20260905163003 80 334 3.0 15.0 0.00 0.00 0.00 72 1018.0
20260905162502 80 293 5.0 15.0 0.00 0.00 0.00 73 1018.1
20260905162004 80 278 7.0 10.0 0.00 0.00 0.00 75 1018.2
20260905161504 79 9 6.0 10.0 0.00 0.00 0.00 76 1018.5
20260905160503 79 16 3.0 12.0 0.00 0.00 0.00 75 1018.5
20260905160003 78 304 4.0 20.0 0.00 0.00 0.00 76 1018.5
20260905155003 78 5 4.0 10.0 0.00 0.00 0.00 77 1018.7
20260905154504 78 335 3.0 14.0 0.00 0.00 0.00 77 1018.6
20260905154003 78 352 9.0 15.0 0.00 0.00 0.00 79 1018.7
20260905153503 77 327 8.0 15.0 0.00 0.00 0.00 82 1018.8
20260905153003 77 21 8.0 14.0 0.00 0.00 0.00 82 1018.8
20260905152503 78 345 6.0 17.0 0.00 0.00 0.00 81 1018.8
20260905152003 78 321 9.0 20.0 0.00 0.00 0.00 79 1018.9
20260905151003 79 354 8.0 17.0 0.00 0.00 0.00 78 1018.7
20260905150503 80 17 4.0 10.0 0.00 0.00 0.00 79 1018.6
20260905150003 80 320 6.0 12.0 0.00 0.00 0.00 78 1018.6
20260905145504 80 333 5.0 13.0 0.00 0.00 0.00 77 1018.5
20260905145003 80 21 6.0 13.0 0.00 0.00 0.00 77 1018.4
20260905144503 80 327 4.0 13.0 0.00 0.00 0.00 78 1018.3
20260905144003 80 329 7.0 13.0 0.00 0.00 0.00 76 1018.3
20260905143503 80 332 9.0 13.0 0.00 0.00 0.00 76 1018.4
20260905143004 80 357 5.0 12.0 0.00 0.00 0.00 78 1018.5
20260905142503 80 4 4.0 12.0 0.00 0.00 0.00 76 1018.6
20260905142003 80 333 5.0 12.0 0.00 0.00 0.00 77 1018.5
20260905141504 80 353 4.0 12.0 0.00 0.00 0.00 77 1018.6
20260905141003 79 342 5.0 17.0 0.00 0.00 0.00 78 1018.5
20260905135503 79 297 9.0 18.0 0.00 0.00 0.00 79 1018.5
20260905135003 78 252 4.0 13.0 0.00 0.00 0.00 81 1018.3
20260905134504 78 248 10.0 13.0 0.00 0.00 0.00 81 1018.4
20260905134003 78 232 2.0 13.0 0.00 0.00 0.00 83 1018.3
20260905133503 78 240 6.0 14.0 0.00 0.00 0.00 82 1018.3
20260905133004 77 227 7.0 16.0 0.00 0.00 0.00 82 1018.2
20260905132503 77 226 9.0 17.0 0.00 0.00 0.00 82 1018.1
20260905132003 77 263 10.0 17.0 0.00 0.00 0.00 82 1018.0
20260905131504 77 256 7.0 12.0 0.00 0.00 0.00 84 1018.2
20260905131003 76 202 3.0 10.0 0.00 0.00 0.00 83 1018.1
20260905130504 76 190 2.0 10.0 0.00 0.00 0.00 84 1018.1
20260905130004 76 145 3.0 10.0 0.00 0.00 0.00 83 1018.0
20260905125504 76 202 6.0 9.0 0.00 0.00 0.00 85 1018.1
20260905125003 76 230 3.0 14.0 0.00 0.00 0.00 84 1018.0
20260905124504 75 281 6.0 14.0 0.00 0.00 0.00 85 1018.0
20260905123504 74 237 3.0 12.0 0.00 0.00 0.00 87 1018.0
20260905123004 73 225 1.0 8.0 0.00 0.00 0.00 86 1018.1
20260905122503 73 194 2.0 12.0 0.00 0.00 0.00 87 1018.2
20260905122003 72 191 4.0 12.0 0.00 0.00 0.00 87 1018.2
20260905121503 72 177 6.0 12.0 0.00 0.00 0.00 88 1018.2
20260905121003 71 171 4.0 12.0 0.00 0.00 0.00 89 1018.0
20260905120503 71 173 5.0 12.0 0.00 0.00 0.00 89 1018.1
20260905120004 71 178 5.0 10.0 0.00 0.00 0.00 89 1018.0
20260905115503 71 171 6.0 10.0 0.00 0.00 0.00 89 1017.9
20260905115003 70 167 7.0 10.0 0.00 0.00 0.00 90 1017.8
20260905114504 70 158 6.0 9.0 0.00 0.00 0.00 90 1017.8
20260905114003 70 225 2.0 8.0 0.00 0.00 0.00 90 1017.8
20260905113503 70 216 4.0 8.0 0.00 0.00 0.00 90 1017.7
20260905112504 70 199 4.0 7.0 0.00 0.00 0.00 89 1017.8
20260905111503 70 183 7.0 13.0 0.00 0.00 0.00 89 1017.8
20260905111004 71 175 5.0 14.0 0.00 0.00 0.00 88 1017.8
20260905110003 71 155 5.0 12.0 0.00 0.00 0.00 87 1017.8
20260905105503 72 154 3.0 7.0 0.00 0.00 0.00 86 1017.8
20260905105003 72 174 3.0 6.0 0.00 0.00 0.00 86 1017.7